Weather History for Laramie, WY

Change the Weather History Date:

Sunday, May 26, 2013

  Actual Average Record
Temperature  
Mean Temperature 57 °F 51 °F  
Max Temperature 77 °F 65 °F 82 °F (1969)
Min Temperature 36 °F 37 °F 17 °F (1950)
Degree Days  
Heating Degree Days 8 14  
Month to date heating degree days 447 473  
Since 1 July heating degree days 8387 8522  
Cooling Degree Days 0 0  
Month to date cooling degree days 0 0  
Year to date cooling degree days 0 0  
Growing Degree Days 6 (Base 50)    
Moisture  
Dew Point 26 °F    
Average Humidity 37    
Maximum Humidity 64    
Minimum Humidity 10    
Precipitation  
Precipitation 0.00 in 0.06 in 0.68 in (2008)
Month to date precipitation 0.72 1.36  
Year to date precipitation 2.70 3.62  
Sea Level Pressure  
Sea Level Pressure 29.77 in    
Wind  
Wind Speed 11 mph (South)    
Max Wind Speed 24 mph    
Max Gust Speed 31 mph    
Visibility 10 miles    
Events      
T = Trace of Precipitation, MM = Missing Value Source: NWS Daily Summary

Daily Weather History Graph

Daily Weather History Graph

Search for Another Location

Airport:

Trip Planner

Search our weather history database for the weather conditions in past years. The results will help you decide how hot, cold, wet, or windy it might be!

Date:

Astronomy

May. 26, 2013 Rise Set
Actual Time 5:34 AM MDT 8:25 PM MDT
Civil Twilight 5:02 AM MDT 8:57 PM MDT
Nautical Twilight 4:21 AM MDT 9:39 PM MDT
Astronomical Twilight 3:33 AM MDT 10:26 PM MDT
Moon 10:14 PM MDT (5/26) 7:07 AM MDT (5/26)
Length of Visible Light 15h 55m
Length of Day
14h 50m
Waning Gibbous, 96% of the Moon is Illuminated
May 26
Waning Gibbous
May 31
Last Quarter
Jun 8
New
Jun 16
First Quarter
Jun 23
Full

Hourly Weather History & Observations

Time (MDT) Temp. Windchill Dew Point Humidity Pressure Visibility Wind Dir Wind Speed Gust Speed Precip Events Conditions
12:53 AM 46.0 °F 41.9 °F 23.0 °F 40% 29.76 in 10.0 mi South 8.1 mph - N/A   Clear
1:53 AM 37.9 °F 30.9 °F 24.1 °F 57% 29.79 in 10.0 mi WSW 10.4 mph - N/A   Clear
2:53 AM 42.1 °F 36.6 °F 25.0 °F 51% 29.78 in - South 9.2 mph - N/A   Clear
3:53 AM 39.0 °F 34.8 °F 25.0 °F 57% 29.79 in - South 5.8 mph - N/A   Clear
4:53 AM 37.9 °F 30.9 °F 24.1 °F 57% 29.79 in - South 10.4 mph - N/A   Clear
5:53 AM 37.0 °F 30.4 °F 26.1 °F 65% 29.82 in - South 9.2 mph - N/A   Clear
6:53 AM 37.9 °F 32.1 °F 25.0 °F 60% 29.82 in - South 8.1 mph - N/A   Clear
7:53 AM 39.0 °F - 27.0 °F 62% 29.86 in - North - - N/A   Clear
8:53 AM 57.9 °F - 30.9 °F 36% 29.79 in 10.0 mi SW 9.2 mph - N/A   Clear
9:53 AM 68.0 °F - 26.1 °F 21% 29.78 in 10.0 mi SW 13.8 mph - N/A   Clear
10:53 AM 71.1 °F - 18.0 °F 13% 29.77 in 10.0 mi Variable 4.6 mph 18.4 mph N/A   Clear
11:53 AM 73.0 °F - 15.1 °F 11% 29.74 in 10.0 mi SSW 15.0 mph 24.2 mph N/A   Clear
12:53 PM 73.9 °F - 16.0 °F 11% 29.74 in 10.0 mi WSW 12.7 mph 18.4 mph N/A   Clear
1:53 PM 73.9 °F - 17.1 °F 12% 29.75 in 10.0 mi SW 15.0 mph 24.2 mph N/A   Clear
2:53 PM 75.9 °F - 16.0 °F 10% 29.71 in 10.0 mi SW 11.5 mph 18.4 mph N/A   Clear
3:38 PM 69.8 °F - 37.4 °F 31% 30.00 in 10.0 mi SE 19.6 mph 25.3 mph N/A   Clear
3:53 PM 68.0 °F - 36.0 °F 31% 29.76 in 10.0 mi SE 21.9 mph 27.6 mph N/A   Clear
4:53 PM 66.9 °F - 37.0 °F 33% 29.77 in 10.0 mi SE 13.8 mph - N/A   Clear
5:53 PM 66.9 °F - 33.1 °F 28% 29.76 in 10.0 mi SSE 18.4 mph 24.2 mph N/A   Clear
6:53 PM 66.0 °F - 28.0 °F 24% 29.76 in 10.0 mi SSE 12.7 mph 23.0 mph N/A   Clear
7:53 PM 63.0 °F - 28.9 °F 28% 29.77 in 10.0 mi South 8.1 mph - N/A   Clear
8:53 PM 57.0 °F - 26.1 °F 30% 29.72 in 10.0 mi South 8.1 mph - N/A   Clear
9:53 PM 53.1 °F - 30.0 °F 41% 29.70 in 10.0 mi SSW 10.4 mph - N/A   Clear
10:53 PM 50.0 °F - 32.0 °F 50% 29.70 in 10.0 mi South 10.4 mph - N/A   Clear
11:53 PM 46.0 °F 43.1 °F 30.9 °F 56% 29.70 in 10.0 mi SSW 5.8 mph - N/A   Clear